EW7948 Weather Reports


time (UTC)temp
F
wind
direction
speed
knots
gust
knots
rain 1hr
in
rain 24hr
in
rain mn
in
humidity
%
barometer
mb
20260505051551 64 327 3.5 5.2 0.00 0.00 0.00 44 998.4
20260505041528 63 36 4.3 8.7 0.00 0.00 0.00 46 998.5
20260505040026 63 38 5.2 12.2 0.00 0.00 0.00 47 998.3
20260505034523 64 360 7.8 11.3 0.00 0.00 0.00 45 998.2
20260505033025 64 319 11.3 18.2 0.00 0.00 0.00 48 998.2
20260505031523 66 328 10.4 17.4 0.00 0.00 0.00 43 998.2
20260505030022 68 324 4.3 10.4 0.00 0.00 0.00 36 997.9
20260505024520 69 135 0.9 8.7 0.00 0.00 0.00 28 997.4
20260505023020 69 288 3.5 10.4 0.00 0.00 0.00 30 997.4
20260505021521 69 236 2.6 8.7 0.00 0.00 0.00 36 997.6
20260505020019 71 5 8.7 15.6 0.00 0.00 0.00 34 997.0
20260505014518 71 209 2.6 9.6 0.00 0.00 0.00 28 996.6
20260505013018 71 64 0.0 4.3 0.00 0.00 0.00 34 996.6
20260505011518 71 66 0.0 7.0 0.00 0.00 0.00 31 996.6
20260505010017 72 51 4.3 8.7 0.00 0.00 0.00 31 996.7
20260505004514 72 74 3.5 6.1 0.00 0.00 0.00 29 996.9
20260505003020 71 348 0.0 4.3 0.00 0.00 0.00 32 997.1
20260505001513 72 360 3.5 7.8 0.00 0.00 0.00 31 997.2
20260505000012 72 37 3.5 11.3 0.00 0.00 0.00 30 997.2
20260504234511 71 55 7.0 12.2 0.00 0.00 0.00 31 997.3
20260504233012 70 29 7.8 12.2 0.00 0.00 0.00 33 997.5
20260504231509 70 32 7.8 14.8 0.00 0.00 0.00 37 997.4
20260504230010 70 19 8.7 13.0 0.00 0.00 0.00 38 997.4
20260504224507 69 27 7.8 12.2 0.00 0.00 0.00 40 997.6
20260504223007 69 332 7.8 12.2 0.00 0.00 0.00 39 997.6
20260504221507 68 336 5.2 9.6 0.00 0.00 0.00 40 997.4
20260504220005 71 314 3.5 17.4 0.00 0.00 0.00 40 998.1
20260504214504 76 239 7.0 9.6 0.00 0.00 0.00 24 997.6
20260504213004 78 186 7.8 13.9 0.00 0.00 0.00 22 997.5
20260504211501 77 148 9.6 19.1 0.00 0.00 0.00 24 997.6
20260504210109 76 189 12.2 20.9 0.00 0.00 0.00 24 997.6
20260504204609 77 212 7.8 15.6 0.00 0.00 0.00 24 997.8
20260504203108 78 219 8.7 14.8 0.00 0.00 0.00 22 997.7
20260504201557 80 271 0.9 7.8 0.00 0.00 0.00 21 997.8
20260504200055 81 150 1.7 7.0 0.00 0.00 0.00 20 998.1
20260504194600 78 174 0.9 7.8 0.00 0.00 0.00 22 998.3
20260504193051 78 101 7.0 10.4 0.00 0.00 0.00 22 998.6
20260504191547 76 112 1.7 8.7 0.00 0.00 0.00 25 998.9
20260504190106 75 116 0.9 10.4 0.00 0.00 0.00 26 999.3
20260504184542 76 163 4.3 8.7 0.00 0.00 0.00 26 999.6
20260504183039 77 249 2.6 9.6 0.00 0.00 0.00 26 1000.1
20260504181541 73 86 0.0 9.6 0.00 0.00 0.00 29 1000.2
20260504180034 75 119 3.5 7.0 0.00 0.00 0.00 27 1000.6
20260504174530 74 155 4.3 8.7 0.00 0.00 0.00 28 1000.8
20260504173027 72 263 6.1 10.4 0.00 0.00 0.00 30 1001.2
20260504171525 73 252 2.6 8.7 0.00 0.00 0.00 28 1001.3
20260504081524 66 180 3.5 7.8 0.00 0.00 0.00 36 1002.4